Location: Wien
(48.2082°N, 16.3738°E)
Time: 10:56:10
(UTC+02:00)

Transit 4A - Pass Details

Date: 02 March 2024
Orbit: 871 x 971 km, 66.8° (Epoch: 24 April)

Event Time Altitude Azimuth Distance (km) Brightness Sun altitude
Exits shadow 00:43:10 10° 33° (NNE) 2,583 10.7 -48.2°
Drops below altitude 10° 00:43:10 10° 33° (NNE) 2,585 10.7 -48.2°
Sets 00:45:40 0° 35° (NE) 3,516 11.5 -48.1°
